This is the latest recevied weather packets stored in our database for station/object K2CAT. If no packets are shown the sender has not sent any weather packets the latest 10 day(s).
| Time | Temp. | Humidity | Pressure | Rain* | Wind** | Luminosity | Snow |
|---|---|---|---|---|---|---|---|
| 1777496598 | 18.89° C | 52% | 1010 hPa | 0 mm | - | 89 W/m² | - |
| 1777496294 | 18.89° C | 51% | 1010 hPa | 0 mm | - | 96 W/m² | - |
| 1777495990 | 18.89° C | 54% | 1009.8 hPa | 0 mm | - | 105 W/m² | - |
| 1777495686 | 18.89° C | 52% | 1010 hPa | 0 mm | - | 113 W/m² | - |
| 1777495383 | 18.89° C | 51% | 1010.1 hPa | 0 mm | - | 123 W/m² | - |
| 1777495079 | 19.44° C | 50% | 1010 hPa | 0 mm | - | 137 W/m² | - |
| 1777494776 | 19.44° C | 51% | 1010.2 hPa | 0 mm | - | 132 W/m² | - |
| 1777494474 | 19.44° C | 49% | 1010.2 hPa | 0 mm | - | 134 W/m² | - |
| 1777494170 | 19.44° C | 51% | 1010.1 hPa | 0 mm | - | 138 W/m² | - |
| 1777493867 | 19.44° C | 51% | 1010.4 hPa | 0 mm | - | 158 W/m² | - |
| 1777493566 | 19.44° C | 49% | 1010.5 hPa | 0 mm | - | 168 W/m² | - |
| 1777493263 | 19.44° C | 51% | 1010.5 hPa | 0 mm | - | 180 W/m² | - |
| 1777492959 | 20° C | 50% | 1010.5 hPa | 0 mm | - | 207 W/m² | - |
| 1777492657 | 20° C | 50% | 1010.5 hPa | 0 mm | - | 212 W/m² | - |
| 1777492356 | 20° C | 54% | 1010.4 hPa | 0 mm | - | 242 W/m² | - |
| 1777492053 | 20° C | 50% | 1010.6 hPa | 0 mm | - | 224 W/m² | - |
| 1777491750 | 20° C | 49% | 1010.5 hPa | 0 mm | - | 242 W/m² | - |
| 1777491447 | 19.44° C | 55% | 1010.8 hPa | 0 mm | - | 235 W/m² | - |
| 1777491144 | 19.44° C | 51% | 1010.9 hPa | 0 mm | - | 219 W/m² | - |
| 1777490840 | 19.44° C | 51% | 1010.8 hPa | 0 mm | - | 240 W/m² | - |
| 1777490536 | 19.44° C | 50% | 1011.1 hPa | 0 mm | - | 241 W/m² | - |
| 1777490232 | 19.44° C | 51% | 1011.3 hPa | 0 mm | - | 203 W/m² | - |
| 1777489930 | 19.44° C | 50% | 1011.2 hPa | 0 mm | - | 226 W/m² | - |
| 1777489628 | 19.44° C | 52% | 1011.4 hPa | 0 mm | - | 283 W/m² | - |
| 1777489324 | 19.44° C | 50% | 1011.2 hPa | 0 mm | - | 262 W/m² | - |
* Rain latest hour (hover to see other rain measurements)
** Current wind speed in m/s (hover to see current wind gust speed)